Terminal Aerodrome Forecast
Issued by NWS Cleveland, OH

Home | Current Version | Previous Version | Graphics & Text | Print | Product List | Glossary On
Versions: 1 2 3 4 5 6 7 8 9 10 11 12 13
000
FTUS41 KCLE 152100 AAA
TAFMFD
TAF AMD
KMFD 152146Z 1522/1618 31012KT P6SM OVC035
     FM160000 31008KT P6SM OVC050
     FM160600 27003KT P6SM SCT050
     FM161400 17008KT P6SM SKC=

USA.gov is the U.S. government's official web portal to all federal, state and local government web resources and services.